Location: Christianberg
(48.9086°N, 14.0209°E)
Time: 19:34:22
(UTC+00:00)

Lacrosse 4 Rocket - Pass Details

Date: 20 June 2021
Orbit: 543 x 614 km, 68.0° (Epoch: 02 August)

Event Time Altitude Azimuth Distance (km) Brightness Sun altitude
Rises 01:09:06 0° 323° (NW) 2,748 5.2 -12.6°
Reaches altitude 10° 01:11:21 10° 320° (NW) 1,840 4.3 -12.4°
Maximum altitude 01:15:23 58° 242° (WSW) 645 1.4 -12.1°
Drops below altitude 10° 01:19:20 10° 163° (SSE) 1,806 3.6 -11.7°
Enters shadow 01:20:10 - 161° (SSE) 2,140 4.0 -11.7°
